Madison, MN

7:46 AM CST on December 15, 2019 (GMT -0600)
Madison-Lac Qui Parle County

Weather History for KDXX - August, 2019

Change the Weather History Date:

Thursday, August 29, 2019

  Actual Average (WUND) Record (WUND)
Temperature  
Mean Temperature 62 °F -  
Max Temperature 71 °F - - (-1)
Min Temperature 53 °F - - (-1)
Degree Days  
Heating Degree Days 3    
Growing Degree Days 12 (Base 50)    
Moisture  
Dew Point 54 °F    
Average Humidity 69    
Maximum Humidity 94    
Minimum Humidity 46    
Precipitation  
Precipitation 0.00 in - - ()
Sea Level Pressure  
Sea Level Pressure 29.92 in    
Wind  
Wind Speed 10 mph (WNW)    
Max Wind Speed 23 mph    
Max Gust Speed 29 mph    
Visibility 10 miles    
Events      
Averages and records for this station are not official NWS values.
T = Trace of Precipitation, MM = Missing Value Source: NWS Daily Summary

Daily Weather History Graph

Daily Weather History Graph

Search for Another Location

Airport or City:

Astronomy

Aug. 29, 2019 Rise Set
Actual Time 6:42 AM CDT 8:07 PM CDT
Civil Twilight 6:12 AM CDT 8:38 PM CDT
Nautical Twilight 5:35 AM CDT 9:14 PM CDT
Astronomical Twilight 4:55 AM CDT 9:53 PM CDT
Moon 5:23 AM CDT (8/29) 8:08 PM CDT (8/29)
Length of Visible Light 14h 25m
Length of Day
13h 24m
Waning Crescent, 1% of the Moon is Illuminated
Aug 29
Waning Crescent
Aug 30
New
Sep 5
First Quarter
Sep 13
Full
Sep 21
Last Quarter

Hourly Weather History & Observations

Time (CDT) Temp. Dew Point Humidity Pressure Visibility Wind Dir Wind Speed Gust Speed Precip Events Conditions
12:15 AM 57.2 °F 55.4 °F 94% 29.85 in 10.0 mi South 5.8 mph - N/A   Clear
12:35 AM 57.2 °F 53.6 °F 88% 29.85 in 10.0 mi South 5.8 mph - N/A   Clear
12:39 AM 57.2 °F 53.6 °F 88% 29.84 in 10.0 mi South 5.8 mph - N/A   Clear
12:58 AM 55.4 °F 53.6 °F 94% 29.83 in 10.0 mi South 5.8 mph - N/A   Clear
1:15 AM 57.2 °F 53.6 °F 88% 29.83 in 10.0 mi South 5.8 mph - N/A   Clear
1:35 AM 55.4 °F 53.6 °F 94% 29.82 in 10.0 mi South 4.6 mph - N/A   Clear
1:36 AM 55.4 °F 53.6 °F 94% 29.82 in 10.0 mi South 4.6 mph - N/A   Clear
1:55 AM 55.4 °F 53.6 °F 94% 29.81 in 10.0 mi South 4.6 mph - N/A   Clear
1:56 AM 55.4 °F 53.6 °F 94% 29.81 in 10.0 mi South 5.8 mph - N/A   Clear
2:19 AM 57.2 °F 53.6 °F 88% 29.79 in 10.0 mi South 6.9 mph - N/A   Clear
2:36 AM 57.2 °F 53.6 °F 88% 29.78 in 10.0 mi South 8.1 mph - N/A   Clear
2:56 AM 57.2 °F 53.6 °F 88% 29.77 in 10.0 mi South 6.9 mph - N/A   Clear
3:15 AM 57.2 °F 53.6 °F 88% 29.77 in 10.0 mi South 5.8 mph - N/A   Clear
3:35 AM 57.2 °F 53.6 °F 88% 29.76 in 10.0 mi South 5.8 mph - N/A   Clear
3:39 AM 57.2 °F 53.6 °F 88% 29.76 in 10.0 mi South 5.8 mph - N/A   Clear
3:58 AM 57.2 °F 55.4 °F 94% 29.75 in 10.0 mi South 6.9 mph - N/A   Clear
4:15 AM 60.8 °F 55.4 °F 82% 29.74 in 10.0 mi SSW 5.8 mph - N/A   Clear
4:35 AM 66.2 °F 62.6 °F 88% 29.73 in 10.0 mi SW 10.4 mph - N/A   Clear
4:36 AM 66.2 °F 62.6 °F 88% 29.73 in 10.0 mi SW 9.2 mph - N/A   Clear
4:55 AM 68.0 °F 62.6 °F 83% 29.73 in 10.0 mi SW 8.1 mph - N/A   Clear
4:56 AM 68.0 °F 62.6 °F 83% 29.73 in 10.0 mi SW 8.1 mph - N/A   Clear
5:19 AM 69.8 °F 62.6 °F 78% 29.72 in 10.0 mi SW 12.7 mph - N/A   Clear
5:36 AM 69.8 °F 62.6 °F 78% 29.72 in 10.0 mi WSW 9.2 mph 17.3 mph N/A   Clear
5:55 AM 69.8 °F 62.6 °F 78% 29.76 in 10.0 mi West 15.0 mph 21.9 mph N/A   Scattered Clouds
6:15 AM 69.8 °F 62.6 °F 78% 29.77 in 10.0 mi West 13.8 mph 19.6 mph N/A   Clear
6:16 AM 69.8 °F 62.6 °F 78% 29.77 in 10.0 mi West 13.8 mph 19.6 mph N/A   Clear
6:35 AM 69.8 °F 62.6 °F 78% 29.78 in 10.0 mi West 12.7 mph 18.4 mph N/A   Clear
6:57 AM 68.0 °F 60.8 °F 78% 29.80 in 10.0 mi WNW 13.8 mph - N/A   Clear
7:15 AM 66.2 °F 59.0 °F 78% 29.81 in 10.0 mi WNW 11.5 mph - N/A   Clear
7:35 AM 66.2 °F 57.2 °F 73% 29.83 in 10.0 mi WNW 10.4 mph 17.3 mph N/A   Clear
7:55 AM 66.2 °F 55.4 °F 68% 29.84 in 10.0 mi WNW 12.7 mph 17.3 mph N/A   Clear
7:56 AM 66.2 °F 55.4 °F 68% 29.84 in 10.0 mi WNW 10.4 mph 17.3 mph N/A   Clear
8:19 AM 66.2 °F 55.4 °F 68% 29.85 in 10.0 mi NW 12.7 mph 18.4 mph N/A   Clear
8:36 AM 66.2 °F 55.4 °F 68% 29.86 in 10.0 mi NW 12.7 mph 21.9 mph N/A   Clear
8:56 AM 66.2 °F 55.4 °F 68% 29.87 in 10.0 mi NW 12.7 mph 19.6 mph N/A   Clear
9:15 AM 66.2 °F 55.4 °F 68% 29.88 in 10.0 mi NW 16.1 mph 23.0 mph N/A   Clear
9:35 AM 68.0 °F 53.6 °F 60% 29.89 in 10.0 mi NW 15.0 mph 20.7 mph N/A   Clear
9:39 AM 68.0 °F 53.6 °F 60% 29.89 in 10.0 mi NW 12.7 mph 20.7 mph N/A   Clear
9:58 AM 69.8 °F 51.8 °F 53% 29.90 in 10.0 mi NW 18.4 mph 23.0 mph N/A   Clear
10:15 AM 69.8 °F 51.8 °F 53% 29.90 in 10.0 mi NNW 19.6 mph 25.3 mph N/A   Clear
10:35 AM 69.8 °F 48.2 °F 46% 29.91 in 10.0 mi NNW 23.0 mph 28.8 mph N/A   Clear
10:36 AM 69.8 °F 48.2 °F 46% 29.91 in 10.0 mi NNW 21.9 mph 28.8 mph N/A   Clear
10:55 AM 69.8 °F 51.8 °F 53% 29.92 in 10.0 mi NW 19.6 mph 28.8 mph N/A   Clear
10:56 AM 69.8 °F 51.8 °F 53% 29.93 in 10.0 mi NW 18.4 mph 28.8 mph N/A   Clear
11:18 AM 69.8 °F 51.8 °F 53% 29.93 in 10.0 mi NNW 18.4 mph 25.3 mph N/A   Clear
11:36 AM 69.8 °F 51.8 °F 53% 29.94 in 10.0 mi NNW 19.6 mph 26.5 mph N/A   Clear
11:55 AM 69.8 °F 51.8 °F 53% 29.94 in 10.0 mi NW 18.4 mph 25.3 mph N/A   Clear
11:56 AM 69.8 °F 51.8 °F 53% 29.94 in 10.0 mi NW 15.0 mph 25.3 mph N/A   Clear
12:15 PM 69.8 °F 50.0 °F 49% 29.95 in 10.0 mi NW 19.6 mph 28.8 mph N/A   Clear
12:16 PM 69.8 °F 50.0 °F 49% 29.95 in 10.0 mi NW 18.4 mph 28.8 mph N/A   Clear
12:35 PM 69.8 °F 51.8 °F 53% 29.96 in 10.0 mi NW 18.4 mph 28.8 mph N/A   Clear
12:57 PM 69.8 °F 51.8 °F 53% 29.96 in 10.0 mi NW 16.1 mph 25.3 mph N/A   Clear
1:15 PM 71.6 °F 51.8 °F 50% 29.96 in 10.0 mi NNW 18.4 mph 24.2 mph N/A   Clear
1:35 PM 71.6 °F 51.8 °F 50% 29.97 in 10.0 mi NNW 19.6 mph 25.3 mph N/A   Clear
1:55 PM 71.6 °F 51.8 °F 50% 29.98 in 10.0 mi NNW 19.6 mph 27.6 mph N/A   Clear
1:59 PM 71.6 °F 51.8 °F 50% 29.98 in 10.0 mi NNW 16.1 mph 27.6 mph N/A   Clear
2:17 PM 71.6 °F 53.6 °F 53% 29.97 in 10.0 mi NNW 16.1 mph 21.9 mph N/A   Clear
2:36 PM 71.6 °F 51.8 °F 50% 29.97 in 10.0 mi NNW 20.7 mph 26.5 mph N/A   Clear
2:55 PM 71.6 °F 51.8 °F 50% 29.98 in 10.0 mi NNW 17.3 mph 26.5 mph N/A   Clear
2:56 PM 71.6 °F 53.6 °F 53% 29.98 in 10.0 mi NNW 16.1 mph 26.5 mph N/A   Clear
3:15 PM 71.6 °F 51.8 °F 50% 29.98 in 10.0 mi NW 18.4 mph 27.6 mph N/A   Clear
3:37 PM 71.6 °F 53.6 °F 53% 29.98 in 10.0 mi NNW 16.1 mph 24.2 mph N/A   Clear
3:56 PM 71.6 °F 53.6 °F 53% 29.98 in 10.0 mi NNW 16.1 mph - N/A   Clear
4:15 PM 71.6 °F 53.6 °F 53% 29.98 in 10.0 mi NNW 13.8 mph 21.9 mph N/A   Clear
4:16 PM 71.6 °F 53.6 °F 53% 29.98 in 10.0 mi NNW 10.4 mph 21.9 mph N/A   Clear
4:35 PM 71.6 °F 53.6 °F 53% 29.99 in 10.0 mi NNW 16.1 mph 21.9 mph N/A   Clear
4:36 PM 71.6 °F 53.6 °F 53% 29.99 in 10.0 mi NNW 15.0 mph 21.9 mph N/A   Clear
4:59 PM 71.6 °F 51.8 °F 50% 29.99 in 10.0 mi NNW 16.1 mph 24.2 mph N/A   Clear
5:16 PM 71.6 °F 51.8 °F 50% 29.99 in 10.0 mi NNW 12.7 mph 21.9 mph N/A   Clear
5:36 PM 71.6 °F 51.8 °F 50% 30.00 in 10.0 mi NNW 18.4 mph 21.9 mph N/A   Clear
5:55 PM 71.6 °F 51.8 °F 50% 30.00 in 10.0 mi NNW 12.7 mph - N/A   Clear
5:56 PM 71.6 °F 51.8 °F 50% 30.00 in 10.0 mi NW 12.7 mph 19.6 mph N/A   Clear
6:15 PM 69.8 °F 51.8 °F 53% 30.01 in 10.0 mi NNW 13.8 mph - N/A   Clear
6:19 PM 69.8 °F 51.8 °F 53% 30.01 in 10.0 mi NNW 12.7 mph - N/A   Clear
6:38 PM 69.8 °F 51.8 °F 53% 30.02 in 10.0 mi NNW 13.8 mph - N/A   Clear
6:55 PM 69.8 °F 53.6 °F 56% 30.02 in 10.0 mi NNW 8.1 mph - N/A   Clear
7:15 PM 68.0 °F 53.6 °F 60% 30.02 in 10.0 mi NNW 10.4 mph - N/A   Clear
7:16 PM 68.0 °F 53.6 °F 60% 30.02 in 10.0 mi NNW 10.4 mph - N/A   Clear
7:35 PM 66.2 °F 53.6 °F 64% 30.02 in 10.0 mi NW 4.6 mph - N/A   Clear
7:36 PM 66.2 °F 53.6 °F 64% 30.02 in 10.0 mi NW 4.6 mph - N/A   Clear
7:58 PM 64.4 °F 53.6 °F 68% 30.03 in 10.0 mi NW 4.6 mph - N/A   Clear
8:17 PM 62.6 °F 53.6 °F 72% 30.03 in 10.0 mi NW 5.8 mph - N/A   Clear
8:36 PM 60.8 °F 53.6 °F 77% 30.04 in 10.0 mi NNW 5.8 mph - N/A   Clear
8:55 PM 62.6 °F 53.6 °F 72% 30.05 in 10.0 mi NW 3.5 mph - N/A   Clear
8:56 PM 62.6 °F 53.6 °F 72% 30.05 in 10.0 mi NW 3.5 mph - N/A   Clear
9:15 PM 60.8 °F 53.6 °F 77% 30.05 in 10.0 mi NW 5.8 mph - N/A   Clear
9:37 PM 59.0 °F 53.6 °F 82% 30.07 in 10.0 mi West 3.5 mph - N/A   Clear
9:56 PM 57.2 °F 53.6 °F 88% 30.07 in 10.0 mi WNW 4.6 mph - N/A   Clear
10:15 PM 57.2 °F 53.6 °F 88% 30.09 in 10.0 mi WSW 5.8 mph - N/A   Clear
10:35 PM 57.2 °F 51.8 °F 82% 30.09 in 10.0 mi West 5.8 mph - N/A   Clear
10:36 PM 57.2 °F 51.8 °F 82% 30.09 in 10.0 mi West 5.8 mph - N/A   Clear
10:59 PM 55.4 °F 51.8 °F 88% 30.10 in 10.0 mi West 3.5 mph - N/A   Clear
11:16 PM 55.4 °F 51.8 °F 88% 30.10 in 10.0 mi West 5.8 mph - N/A   Clear
11:36 PM 53.6 °F 51.8 °F 94% 30.09 in 10.0 mi West 4.6 mph - N/A   Clear
11:55 PM 53.6 °F 51.8 °F 94% 30.10 in 10.0 mi West 5.8 mph - N/A   Clear
11:56 PM 53.6 °F 51.8 °F 94% 30.10 in 10.0 mi West 5.8 mph - N/A   Clear